Flag for U.S.A. Weather past 2 weeks in Galveston, Texas, U.S.A.

Now
68 °F

Fog.


Feels Like: 68 °F
Forecast: 42 / 60 °F
Wind: 7 mph from East

Location: Scholes Field

Current Time: Mar 4, 2015 at 6:58:50 PM

Latest Report: Mar 4, 2015 at 5:52 PM


Visibility: 3 mi

Pressure: 29.82 "Hg

Humidity: 100%

Dew point: 68 °F

Location of GalvestonLocation

Historic Weather in Galveston — Graph

°F

Galveston temperature yesterday

Maximum temperature yesterday: 72 °F (at 12:52 PM)
Minimum temperature yesterday: 57 °F (at 12:52 AM)
Average temperature yesterday: 63 °F

Past Weeks' High & Low Weather Summary

 TemperatureHumidityPressure
High73 °F (Mar 4, 11:52 AM)100% (Feb 19, 5:52 AM)30.42 "Hg (Feb 19, 5:52 AM)
Low38 °F (Feb 23, 10:52 PM)41% (Feb 18, 12:52 PM)29.82 "Hg (Feb 25, 2:52 PM)
Average54 °F86%30.14 "Hg
* Reported Feb 17 5:52 PM — Mar 4 5:52 PM, Galveston, Weather by CustomWeather, © 2015

Note: Actual official high and low records may vary slightly from our data, if they occured in-between our weather recording intervals... More about our weather records

Advertising

Galveston weather history for previous 24 hours

 ConditionsComfort  
Time TempWeatherWind HumidityBarometerVisibility
5:52 PM
Wed, Mar 4
68 °FFog.7 mph100%29.82 "Hg3 mi
4:52 PM69 °FFog.6 mph96%29.82 "Hg3 mi
3:58 PM69 °FFog.8 mph93%29.84 "Hg3 mi
2:52 PM72 °FPartly sunny.9 mph87%29.84 "Hg10 mi
1:52 PM73 °FMostly cloudy.9 mph84%29.85 "Hg6 mi
12:52 PM72 °FFog.9 mph87%29.89 "Hg6 mi
11:52 AM73 °FFog.12 mph88%29.91 "Hg6 mi
10:52 AM72 °FFog.12 mph91%29.93 "Hg4 mi
9:52 AM68 °FFog.7 mph100%29.93 "Hg3 mi
8:52 AM67 °FFog.7 mph100%29.92 "Hg1 mi
8:02 AM66 °FFog.7 mph100%29.92 "Hg3 mi
7:54 AM65 °FFog.6 mph100%29.91 "Hg1 mi
6:52 AM64 °FFog.9 mph100%29.89 "Hg1 mi
6:02 AM63 °FFog.8 mph100%29.88 "Hg2 mi
5:52 AM64 °FFog.8 mph100%29.88 "Hg3 mi
5:00 AM64 °FFog.10 mph100%29.87 "Hg5 mi
4:00 AM64 °FFog.14 mph100%29.87 "Hg3 mi
3:00 AM63 °FFog.13 mph100%29.88 "Hg1 mi
1:52 AM63 °FFog.9 mph100%29.89 "Hg1 mi
12:52 AM64 °FFog.12 mph100%29.90 "Hg4 mi
11:52 PM
Tue, Mar 3
64 °FFog.13 mph100%29.91 "Hg5 mi
10:52 PM64 °FFog.10 mph100%29.93 "Hg5 mi
9:59 PM65 °FFog.6 mph100%29.94 "Hg4 mi
8:58 PM65 °FFog.7 mph100%29.93 "Hg3 mi
8:00 PM65 °FFog.10 mph100%29.92 "Hg5 mi
6:52 PM64 °FFog.10 mph100%29.90 "Hg1 mi
Weather by CustomWeather, © 2015

See weather overviewHow to use our weather pages